www.pogodaiklimat.ru

Погода и климат >> Архив погоды >> Россия >> Ингушетия >> Назрань


ПОГОДА в Назрани

АРХИВ ПОГОДЫ в Назрани

Время (UTC), дата Ветер
(напр.,м/с)
 
Видим.   Явления Облачность Т
(С)
Тd
(С)
f
(%)
Тe
(С)
Тes
(С)
Комфортность P
(гПа)
Po
(гПа)
Тmin
(С)
Tmax
(С)
R
(мм)
R24
(мм)
S
(см)
21 11.07 штиль 0 10 км 10/0
[As op]
+20.5 +16.9 80 +24 +24 комфорт 1002.4 928.8
00 12.07 штиль 0 10 км 10/0
[As op]
+18.4 +15.2 82 +19 +19 тепло 1001.7 927.5
03 12.07 З 3 10 км в посл. час ливневой дождь 10/10 700 м
[Sc]
+15.8 +14.8 94 +15 +15 прохладно 1002.7 927.9 +14.5 0.0
06 12.07 З 2 20 км 8/0
[Ac As]
+17.8 +14.7 82 +18 +23 прохладно 999.5 927.7
09 12.07 В 2 20 км 8/0
[As op]
+23.8 +17.9 70 +28 +35 душно 1001.9 928.8
12 12.07 ЮВ 2 10 км {ливн. осадки} 10/0
[As op]
+24.0 +19.2 75 +29 +31 душно 1005.5 932.1
15 12.07 Ю 2 4000 м слаб. ливневой дождь 10/10 600 м
[Cu med, cong]
+21.0 +19.3 90 +26 +26 душно 1009.1 934.7 +24.0 0.8
18 12.07 ЮВ 2 10 км слаб. ливневой дождь 10/10 600 м
[Cu med, cong]
+18.0 +15.3 84 +19 +19 по сезону 1010.8 935.6
21 12.07 ЮВ 2 10 км {ливн. осадки} 10/0
[As op]
+16.0 +16.4 100 +16 +16 прохладно 1010.5 934.8
00 13.07 Ю 2 10 км 10/0
[As op]
+14.0 +10.4 79 +14 +14 прохладно 1011.1 934.6
03 13.07 Ю 2 10 км слаб. ливневой дождь 10/10 600 м
[Cu med, cong]
+13.0 +8.6 75 +12 +12 очень
холодно
1009.6 933.2 +13.0 4
06 13.07 СВ 2 10 км {ливн. осадки} 10/0
[As op]
+16.0 +10.3 69 +16 +18 холодно 1008.9 933.3
09 13.07 В 2 20 км {ливн. осадки} 10/0
[As op]
+18.0 +11.4 65 +19 +22 холодно 1009.7 934.5
12 13.07 С 2 20 км 10/0
[As op]
+19.6 +11.5 59 +21 +24 комфорт 1009.0 934.3
15 13.07 В 2 20 км 8/0
[As op]
+19.5 +11.3 59 +21 +22 комфорт 1009.6 934.7 +20.0 0.5
18 13.07 ЮВ 2 10 км 10/0
[As op]
+18.0 +12.4 70 +19 +19 по сезону 1011.6 936.3
21 13.07 ЮВ 2 10 км 10/0
[As op]
+16.0 +10.6 70 +16 +16 прохладно 1011.2 935.4
00 14.07 Ю 2 10 км 10/0
[As op]
+15.0 +10.2 73 +15 +15 прохладно 1011.0 935.0
03 14.07 Ю 3 4000 м ливневой дождь 10/10 600 м
[Cu med, cong]
+12.0 +10.3 89 +10 +10 очень
холодно
1012.2 935.3 +12.0 30
06 14.07 Ю 2 4000 м ливневой дождь 10/10 600 м
[Cu med, cong]
+15.0 +13.2 89 +15 +15 очень
холодно
1011.8 935.8
09 14.07 С 1 20 км {ливн. осадки} 8/8 700 м
[Sc]
+17.4 +14.3 82 +18 +23 холодно 1010.6 935.6
12 14.07 В 1 20 км 9/9 700 м
[Sc]
+19.0 +14.0 73 +21 +23 комфорт 1009.6 935.1
15 14.07 Ю 1 10 км 10/10 700 м
[Sc]
+18.2 +14.8 81 +20 +20 прохладно 1009.7 935.0 +20.5 8
18 14.07 штиль 0 20 км 8/0
[Ac trans]
+17.4 +14.3 82 +17 +17 прохладно 1009.9 934.9
21 14.07 штиль 0 20 км ясно +16.1 +13.2 83 +16 +16 прохладно 1009.6 934.4
00 15.07 штиль 0 20 км 3/0
[Ac trans]
+15.2 +12.7 85 +15 +15 прохладно 1007.2 931.8
03 15.07 ЮЗ 2 10 км {ливн. осадки} 9/0
[Ac As]
+14.5 +12.1 86 +14 +15 холодно 1007.1 931.6 +12.0 0.0
06 15.07 Ю 1 20 км 6/0
[Ac As]
+17.6 +14.9 84 +19 +27 прохладно 1005.5 930.9
09 15.07 штиль 0 20 км 6/0
[Ac trans]
+21.2 +15.7 71 +24 +41 комфорт 1003.4 929.9
12 15.07 С 1 20 км 3/3 1020 м
[Cu hum]
+24.3 +16.5 62 +28 +38 душно 1001.1 928.5
15 15.07 Ю 2 20 км 3/0
[Ci fib]
+22.1 +19 +20 прохладно 1002.3 928.8 +25.0
18 15.07 С 2 20 км 10/0
[Ac As]
+19.4 +15.3 77 +22 +22 комфорт 1003.8 929.8
21 15.07 штиль 0 10 км 10/0
[As op]
+18.0 +14.9 82 +18 +18 по сезону 1005.1 930.6
00 16.07 штиль 0 20 км 10/0
[Ac As]
+16.7 +13.9 84 +17 +17 по сезону 1005.0 930.4
03 16.07 СЗ 1 1000 м дымка {ливн. осадки} 10/0
[Ac As]
+17.6 +17.3 98 +19 +19 по сезону 1004.7 930.3 +15.5 0.9
06 16.07 СЗ 1 20 км {ливн. осадки} 9/0
[Ac As]
+19.4 +17.8 90 +23 +28 комфорт 1005.2 931.2
09 16.07 В 2 20 км 8/0
[As op]
+23.0 +17.2 70 +28 +35 душно 1004.7 931.1
12 16.07 ЮВ 2 20 км 8/0
[As op]
+24.1 +12.9 50 +26 +30 жарко 1004.4 931.0
15 16.07 Ю 2 20 км 10/0
[As op]
+23.2 +16.3 65 +28 +28 душно 1004.3 930.8 +26.0
18 16.07 В 2 20 км 10/0
[As op]
+19.4 +15.3 77 +22 +22 комфорт 1008.8 929.8
21 16.07 ЮВ 2 10 км 10/0
[As op]
+16.0 +10.3 69 +16 +16 прохладно 1007.9 932.4
00 17.07 ЮВ 2 10 км {ливн. осадки} 10/0
[As op]
+15.0 +9.6 70 +15 +15 прохладно 1010.4 934.4
03 17.07 В 2 10 км 10/0
[As op]
+15.5 +11.9 79 +15 +16 холодно 1012.1 936.1 +15.0 32
06 17.07 Ю 2 20 км 10/0
[As op]
+16.0 +10.3 69 +16 +18 холодно 1011.3 935.5
09 17.07 ЮВ 2 20 км 10/0
[As op]
+21.8 +13.5 59 +25 +28 комфорт 1010.0 935.8
12 17.07 В 2 20 км 10/0
[As op]
+23.0 +13.4 55 +26 +29 жарко 1008.9 935.0
15 17.07 В 2 20 км 10/0
[As op]
+20.0 +14.2 69 +23 +23 комфорт 1008.0 933.7 +23.0
18 17.07 В 2 10 км 10/0
[As op]
+17.6 +12.2 71 +18 +18 прохладно 1008.6 933.4
21 17.07 Ю 2 10 км 10/0
[As op]
+16.1 +11.1 72 +16 +16 прохладно 1008.8 933.2
00 18.07 ЮВ 2 10 км 10/0
[As op]
+15.6 +10.1 70 +16 +16 по сезону 1008.7 933.0
03 18.07 В 2 20 км 5/0
[Ci fib]
+16.5 +8.5 59 +17 +18 прохладно 1007.5 932.1 +15.0
06 18.07 ЮВ 2 20 км ясно +18.8 +7.9 49 +20 +31 прохладно 1006.4 931.7
09 18.07 В 1 20 км 4/4 1020 м
[Cu hum]
+25.0 +17.1 62 +29 +42 душно 1003.7 931.1
12 18.07 Ю 1 20 км 8/0
[Ac As]
+25.0 +18.4 67 +30 +36 душно 1004.7 932.0
15 18.07 ЮЗ 1 20 км 10/10 600 м
[Cb calv]
+23.4 +18.3 73 +29 +29 душно 1006.4 933.3 +26.5
18 18.07 ЮЗ 1 10 км слаб. ливневой дождь 10/10 600 м
[Cb cap]
+20.6 +18.2 86 +26 +26 душно 1009.3 935.3

 

Местоположение метеостанции Назрань (Ингушетия, Россия): широта 43.15 долгота 44.85 высота над уровнем моря 665 м.

В архиве по умолчанию представлена погода в Назрани за последнюю неделю. Архивные данные за месяц целиком и за предыдущие месяцы, начиная с января 2011 года, Вы можете получить, выбрав интересующий диапазон дат из раскрывающегося списка и нажав кнопку "Ввод!".


*Определитесь, кто Вы:
робот инопланетянин человек

Внимание! Время в таблицах - всемирное. Для получения местного времени необходимо прибавить поправку, которая равна 3 ч.

Смотрите также архив погоды в соседних городах и на ближайших метеорологических станциях:

Погода в Владикавказе (Северная Осетия, Россия) (19 км)
Погода в Алагире (Северная Осетия, Россия) (50 км)
Погода в Моздоке (Северная Осетия, Россия) (66 км)
Погода в Наурской (Чечня, Россия) (67 км)
Погода в Грозном (Чечня, Россия) (71 км)
Погода в Шатое (Чечня, Россия) (74 км)
Погода на Рокском Перевале (Северная Осетия, Россия) (85 км)
Погода в Наре (Северная Осетия, Россия) (87 км)
Погода в Пасанаури (Грузия) (90 км)
Погода в Прохладный (Кабардино-Балкария, Россия) (93 км)

Пояснения к столбцам:

Ветер - указаны скорость ветра в м/с - средняя за 10 мин, порывы в срок и между сроками (в фигурных скобках) и направление, откуда дует ветер: С - северный, СВ - северо-восточный, В - восточный, ЮВ - юго-восточный, Ю - южный, ЮЗ - юго-западный, З - западный, СЗ - северо-западный.
Видимость - горизонтальная дальность видимости в метрах или километрах. При видимости от 1 до 10 км при отсутствии осадков обычно наблюдается дымка, при ухудшении видимости до 1 км и менее - туман. В сухую погоду видимость может ухудшаться дымом, пылью или мглою.
Явления - указаны атмосферные явления, наблюдавшиеся в срок или в последний час перед сроком; фигурными скобками обозначены явления, наблюдавшиеся между сроками (за 1-3 часа до срока); квадратными скобками обозначены град или гололедные отложения с указанием их диаметра в мм.
Облачность - указаны через наклонную черту общая и нижняя облачность в баллах и высота нижней границы облаков в метрах; квадратными скобками обозначены формы облаков: Ci - перистые, Cs - перисто-слоистые, Cc - перисто-кучевые, Ac - высококучевые, As - высокослоистые, Sc - слоисто-кучевые, Ns - слоисто-дождевые, Cu - кучевые, Cb - кучево-дождевые. Подробнее классификацию облаков см. в Атласе облаков (PDF).
T - Температура воздуха - температура, измеренная на высоте 2 м над землей.
Td - Температура точки росы - температура, при понижении до которой содержащийся в воздухе водяной пар достигнет насыщения.
f - Относительная влажность воздуха - влажноcть воздуха, измеренная на высоте 2 м над землей.
Te - Эффективная температура - температура, которую ощущает одетый по сезону человек в тени. Характеристика душности погоды. При расчете учитывается влияние влажности воздуха и скорости ветра на теплоощущения человека.
Tes - Эффективная температура на солнце - температура, которую ощущает человек, с поправкой на солнечный нагрев. Характеристика знойности погоды. Зависит от высоты солнца над горизонтом, облачности и скорости ветра. Ночью, в пасмурную погоду, а также при ветре 12 м/с и более поправка равна нулю.
P - Атмосферное давление - приведенное к уровню моря атмосферное давление.
Po - Атмосферное давление - измеренное на уровне метеостанции атмосферное давление.
Tmin - Минимальная температура - минимум температуры воздуха на высоте 2 м над землей.
Tmax - Максимальная температура - максимум температуры воздуха на высоте 2 м над землей.
R - Количество осадков - Количество выпавших осадков за период времени, мм. При наведении курсора мыши на число - период времени, за который выпало указанное количество осадков.
R24 - Количество осадков - Количество выпавших осадков за 24 часа, мм.
S - Снежный покров - Высота снежного покрова, см. При наведении курсора мыши на число - состояние снежного покрова и степень покрытия местности в баллах.